Regional Weather Roundup
Issued by NWS Cleveland, OH

Home | Current Version | Previous Version | Graphics & Text | Print | Product List | Glossary On
Versions: 1 2 3 4 5 6 7 8 9 10 11 12 13 14 15 16 17 18 19 20 21 22 23 24 25 26 27 28 29 30 31 32 33 34 35 36 37 38 39 40 41 42 43 44 45 46 47 48 49 50
000
ASUS41 KCLE 251100
RWRCLE
OHIO REGIONAL WEATHER ROUNDUP
NATIONAL WEATHER SERVICE WILMINGTON, OH
700 AM EDT SAT OCT 25 2014

NOTE: "FAIR" INDICATES FEW OR NO CLOUDS BELOW 12,000 FEET WITH NO
SIGNIFICANT WEATHER AND/OR OBSTRUCTIONS TO VISIBILITY.

OHZ001>008-015>018-024>027-034-035-043-044-251200-
   NORTHWEST OHIO

CITY           SKY/WX    TMP DP  RH WIND       PRES   REMARKS
DEFIANCE       CLOUDY    53  50  89 SW6       29.91R FOG
FINDLAY        CLOUDY    53  49  86 S8        29.91F
TOLEDO EXPRESS CLOUDY    51  48  89 SW7       29.89S FOG
TOLEDO METCALF CLOUDY    51  47  86 SW8       29.90S FOG
LIMA           CLOUDY    53  48  83 S8        29.93F
$$

OHZ009>014-019>023-028>033-038-089-251200-
   NORTHEAST OHIO

CITY           SKY/WX    TMP DP  RH WIND       PRES   REMARKS
CLE-HOPKINS    PTCLDY    50  45  83 SW7       29.92F
CLE-LAKEFRONT  PTCLDY    55  46  71 S9        29.89F
CUY CO. ARPT   CLEAR     54  48  82 SW9       29.91
LORAIN-ELYRIA  CLEAR     47  44  90 SW7       29.91F
ASHTABULA      MOCLDY    49  43  80 S6        29.91F
AKRON-CANTON   PTCLDY    44  38  79 SW6       29.94F
WOOSTER        NOT AVBL
MANSFIELD      MOCLDY    50  47  89 SW8       29.93F
YOUNGSTOWN     MOCLDY    46  39  76 S5        29.93S
$$

OHZ042-051>053-060>062-070>072-077>081-251200-
  SOUTHWEST OHIO

CITY           SKY/WX    TMP DP  RH WIND       PRES   REMARKS
CINC-COVINGTON MOCLDY    46  42  86 S7        30.00S
CINC-LUNKEN    MOCLDY    41  40  96 CALM      30.03R FOG
HAMILTON       PTCLDY    40  39  97 CALM      30.01R FOG
DAYTON         NOT AVBL
WRIGHT-PAT AFB CLEAR     46  43  90 SE2       29.98S
DAYTON GENERAL CLEAR     46  43  89 S7        29.98F
WILMINGTON     CLEAR     45  41  86 SW6       30.00S
$$

OHZ036-037-039>041-045>050-054>059-063>069-073>076-082>088-251200-
  CENTRAL AND SOUTHEAST OHIO

CITY           SKY/WX    TMP DP  RH WIND       PRES   REMARKS
COLUMBUS       PTCLDY    45  39  79 SE3       29.98S
OSU AIRPORT    PTCLDY    44  40  85 S3        29.97F
BOLTON FIELD   NOT AVBL
RICKENBACK AFB NOT AVBL
NEWARK         MOCLDY    42  40  92 CALM      29.98S
MARION         PTCLDY    48  44  86 S9        29.94F FOG
LANCASTER      MOCLDY    45  41  86 SE3       29.99S
ZANESVILLE     CLOUDY    39  37  92 S3        29.99S
NEW PHILLY     MOCLDY    42  40  92 SE5       29.98S
$$



USA.gov is the U.S. government's official web portal to all federal, state and local government web resources and services.